Weather History for Hamilton Island, QU

Change the Weather History Date:

Monday, October 8, 2012

  Actual Average Record
Temperature  
Mean Temperature 72 °F -  
Max Temperature 78 °F - - ()
Min Temperature 67 °F - - ()
Cooling Degree Days 8    
Growing Degree Days 22 (Base 50)    
Moisture  
Dew Point 59 °F    
Average Humidity 60    
Maximum Humidity 73    
Minimum Humidity 33    
Precipitation  
Precipitation 0.00 in - - ()
Sea Level Pressure  
Sea Level Pressure 29.86 in    
Wind  
Wind Speed 11 mph ()    
Max Wind Speed 23 mph    
Max Gust Speed -    
T = Trace of Precipitation, MM = Missing Value Source: Averaged Metar Reports

Daily Weather History Graph

Daily Weather History Graph

Search for Another Location

Airport:

Trip Planner

Search our weather history database for the weather conditions in past years. The results will help you decide how hot, cold, wet, or windy it might be!

Date:

Astronomy

Oct. 08, 2012 Rise Set
Actual Time 5:39 AM AEST 6:04 PM AEST
Civil Twilight 5:17 AM AEST 6:26 PM AEST
Nautical Twilight 4:51 AM AEST 6:52 PM AEST
Astronomical Twilight 4:25 AM AEST 7:18 PM AEST
Moon No Moon Rise 11:17 AM AEST (10/8)
Length of Visible Light 13h 09m
Length of Day
12h 24m
Waning Gibbous, 52% of the Moon is Illuminated
Oct 8
Waning Gibbous
Oct 8
Last Quarter
Oct 15
New
Oct 22
First Quarter
Oct 30
Full

Hourly Weather History & Observations

Time (AEST) Temp. Dew Point Humidity Pressure Visibility Wind Dir Wind Speed Gust Speed Precip Events Conditions
12:00 AM 69 °F 58 °F 58% 29.92 in - WNW 4.6 mph - -  
12:00 AM 68.0 °F 57.2 °F 68% 29.92 in - WNW 4.6 mph - N/A   Unknown
12:30 AM 69.8 °F 57.2 °F 64% 29.92 in - NW 6.9 mph - N/A   Unknown
1:00 AM 68.0 °F 55.4 °F 64% 29.89 in - NNW 8.1 mph - N/A   Unknown
1:30 AM 69.8 °F 57.2 °F 64% 29.89 in - NNW 4.6 mph - N/A   Unknown
2:00 AM 68.0 °F 57.2 °F 68% 29.89 in - WNW 3.5 mph - N/A   Unknown
2:30 AM 68.0 °F 59.0 °F 73% 29.86 in - WNW 4.6 mph - N/A   Unknown
3:00 AM 68 °F 57 °F 59% 29.86 in - NW 5.8 mph - -  
3:00 AM 68.0 °F 57.2 °F 68% 29.86 in - NW 5.8 mph - N/A   Unknown
3:30 AM 69.8 °F 57.2 °F 64% 29.86 in - NW 6.9 mph - N/A   Unknown
4:00 AM 69.8 °F 57.2 °F 64% 29.86 in - NNW 6.9 mph - N/A   Unknown
4:30 AM 69.8 °F 57.2 °F 64% 29.86 in - NW 8.1 mph - N/A   Unknown
5:00 AM 69.8 °F 57.2 °F 64% 29.89 in - NNW 6.9 mph - N/A   Unknown
5:30 AM 69.8 °F 59.0 °F 68% 29.89 in - NNW 6.9 mph - N/A   Unknown
6:00 AM 70 °F 59 °F 60% 29.88 in - NW 8.1 mph - -  
6:00 AM 69.8 °F 59.0 °F 68% 29.89 in - NW 8.1 mph - N/A   Unknown
6:30 AM 69.8 °F 59.0 °F 68% 29.89 in - NNW 9.2 mph - N/A   Unknown
7:00 AM 71.6 °F 59.0 °F 64% 29.89 in - NW 12.7 mph - N/A   Unknown
7:30 AM 71.6 °F 59.0 °F 64% 29.92 in - NW 12.7 mph - N/A   Unknown
8:00 AM 73.4 °F 59.0 °F 61% 29.92 in - NW 16.1 mph - N/A   Unknown
8:30 AM 73.4 °F 60.8 °F 65% 29.92 in - NW 18.4 mph - N/A   Unknown
9:00 AM 74 °F 60 °F 52% 29.91 in - NW 19.6 mph - -  
9:00 AM 73.4 °F 59.0 °F 61% 29.92 in - NW 19.6 mph - N/A   Unknown
9:30 AM 75.2 °F 60.8 °F 61% 29.92 in - NW 19.6 mph - N/A   Unknown
10:00 AM 75.2 °F 60.8 °F 61% 29.92 in - NW 20.7 mph - N/A   Unknown
10:30 AM 75.2 °F 60.8 °F 61% 29.89 in - NW 23.0 mph - N/A   Unknown
11:00 AM 77.0 °F 60.8 °F 57% 29.89 in - NW 20.7 mph - N/A   Unknown
11:30 AM 77.0 °F 59.0 °F 54% 29.89 in - NW 20.7 mph - N/A   Unknown
12:00 PM 78 °F 54 °F 33% 29.87 in - NW 21.9 mph - -  
12:00 PM 78.8 °F 53.6 °F 42% 29.86 in - NW 21.9 mph - N/A   Unknown
12:30 PM 78.8 °F 59.0 °F 51% 29.86 in - NW 20.7 mph - N/A   Unknown
1:00 PM 77.0 °F 59.0 °F 54% 29.83 in - NW 21.9 mph - N/A   Unknown
1:30 PM 78.8 °F 59.0 °F 51% 29.83 in - NW 20.7 mph - N/A   Unknown
2:00 PM 77.0 °F 59.0 °F 54% 29.80 in - NW 23.0 mph - N/A   Unknown
2:30 PM 78.8 °F 59.0 °F 51% 29.80 in - NW 21.9 mph - N/A   Unknown
3:00 PM 78 °F 58 °F 40% 29.79 in - NW 20.7 mph - -  
3:00 PM 78.8 °F 59.0 °F 51% 29.80 in - NW 20.7 mph - N/A   Unknown
3:30 PM 77.0 °F 60.8 °F 57% 29.77 in - NW 21.9 mph - N/A   Unknown
4:00 PM 77.0 °F 60.8 °F 57% 29.77 in - NW 21.9 mph - N/A   Unknown
4:30 PM 77.0 °F 62.6 °F 61% 29.77 in - NW 23.0 mph - N/A   Unknown
5:00 PM 77.0 °F 60.8 °F 57% 29.80 in - NW 23.0 mph - N/A   Unknown
5:30 PM 75.2 °F 60.8 °F 61% 29.80 in - NW 19.6 mph - N/A   Unknown
6:00 PM 74 °F 59 °F 50% 29.81 in - NNW 20.7 mph - -  
6:00 PM 75.2 °F 59.0 °F 57% 29.80 in - NNW 20.7 mph - N/A   Unknown
6:30 PM 75.2 °F 60.8 °F 61% 29.80 in - NNW 20.7 mph - N/A   Unknown
7:00 PM 73.4 °F 57.2 °F 57% 29.83 in - North 12.7 mph - N/A   Unknown
7:30 PM 73.4 °F 59.0 °F 61% 29.83 in - North 13.8 mph - N/A   Unknown
8:00 PM 73.4 °F 60.8 °F 65% 29.83 in - North 10.4 mph - N/A   Unknown
8:30 PM 73.4 °F 60.8 °F 65% 29.86 in - North 9.2 mph - N/A   Unknown
9:00 PM 72 °F 60 °F 57% 29.86 in - NNW 10.4 mph - -  
9:00 PM 73.4 °F 60.8 °F 65% 29.86 in - NNW 10.4 mph - N/A   Unknown
9:30 PM 71.6 °F 60.8 °F 69% 29.86 in - NNW 10.4 mph - N/A   Unknown
10:00 PM 71.6 °F 60.8 °F 69% 29.86 in - North 11.5 mph - N/A   Unknown
10:30 PM 71.6 °F 60.8 °F 69% 29.86 in - North 10.4 mph - N/A   Unknown
11:00 PM 71.6 °F 60.8 °F 69% 29.86 in - NNW 9.2 mph - N/A   Unknown
11:30 PM 71.6 °F 62.6 °F 73% 29.83 in - NNW 9.2 mph - N/A   Unknown